EW8626 Weather Reports


time (UTC)temp
F
wind
direction
speed
knots
gust
knots
rain 1hr
in
rain 24hr
in
rain mn
in
humidity
%
barometer
mb
20260509043007 55 339 0.0 0.0 0.01 0.01 0.01 93 1005.3
20260509041505 55 339 0.0 0.0 0.00 0.00 0.00 93 1005.4
20260509040004 55 337 0.0 0.0 0.00 0.00 0.00 92 1005.5
20260509034501 55 337 0.0 0.9 0.00 0.00 0.00 92 1005.7
20260509033002 55 333 0.0 0.0 0.00 0.00 0.00 91 1005.9
20260509031601 55 333 0.0 0.0 0.00 0.00 0.00 90 1005.9
20260509030100 55 333 0.0 0.0 0.00 0.00 0.00 89 1006.0
20260509024605 56 333 0.0 0.9 0.00 0.00 0.00 88 1006.2
20260509023057 56 312 0.0 2.6 0.00 0.00 0.00 86 1006.2
20260509021557 57 347 0.0 0.0 0.00 0.00 0.00 84 1006.4
20260509020057 57 314 0.0 0.9 0.00 0.00 0.00 82 1006.2
20260509014555 58 343 0.0 1.7 0.00 0.00 0.00 80 1006.2
20260509013056 59 10 0.0 0.9 0.00 0.00 0.00 76 1005.6
20260509011601 60 13 0.0 2.6 0.00 0.00 0.00 73 1005.4
20260509010054 61 15 0.9 3.5 0.00 0.00 0.00 69 1004.9
20260509004557 62 148 0.0 0.0 0.00 0.00 0.00 68 1005.1
20260509003048 63 148 0.0 0.0 0.00 0.00 0.00 60 1005.2
20260509001552 63 148 0.0 0.0 0.00 0.00 0.00 56 1005.2
20260509000048 64 148 0.0 0.0 0.00 0.00 0.00 53 1005.2
20260508234546 64 148 0.0 0.0 0.00 0.00 0.00 52 1005.3
20260508233045 65 147 0.0 0.0 0.00 0.00 0.00 52 1005.1
20260508231551 65 147 0.0 0.0 0.00 0.00 0.00 50 1005.1
20260508230043 65 148 0.0 0.0 0.00 0.00 0.00 49 1005.1
20260508224601 66 145 0.0 0.0 0.00 0.00 0.00 48 1005.0
20260508223043 66 145 0.0 0.0 0.00 0.00 0.00 47 1005.1
20260508221553 66 133 0.0 0.9 0.00 0.00 0.00 47 1005.1
20260508220041 67 154 0.0 3.5 0.00 0.00 0.00 46 1004.9
20260508214546 67 165 0.0 1.7 0.00 0.00 0.00 45 1005.0
20260508213040 67 181 0.0 5.2 0.00 0.00 0.00 45 1004.9
20260508211540 67 136 0.0 5.2 0.00 0.00 0.00 47 1005.1
20260508210038 67 174 0.0 2.6 0.00 0.00 0.00 46 1005.1
20260508204537 67 252 0.0 4.3 0.00 0.00 0.00 45 1005.5
20260508203035 67 161 0.9 7.8 0.00 0.00 0.00 43 1005.8
20260508201537 67 172 0.0 5.2 0.00 0.00 0.00 45 1006.2
20260508200041 67 155 0.9 8.7 0.00 0.00 0.00 45 1006.4
20260508194528 67 142 0.0 3.5 0.00 0.00 0.00 46 1006.4
20260508193025 66 155 1.7 7.0 0.00 0.00 0.00 45 1006.7
20260508191524 66 159 0.0 9.6 0.00 0.00 0.00 47 1006.9
20260508190024 68 160 0.0 7.0 0.00 0.00 0.00 45 1006.9
20260508184527 67 144 0.9 5.2 0.00 0.00 0.00 43 1006.9
20260508183020 68 179 0.9 11.3 0.00 0.00 0.00 42 1007.1
20260508181518 68 166 1.7 8.7 0.00 0.00 0.00 45 1007.4
20260508180016 67 177 0.0 10.4 0.00 0.00 0.00 47 1007.7
20260508174514 68 150 2.6 11.3 0.00 0.00 0.00 43 1008.0
20260508173009 66 169 0.0 3.5 0.00 0.00 0.00 47 1008.2
20260508171511 65 147 0.9 7.8 0.00 0.00 0.00 50 1008.5
20260508170004 66 257 0.0 8.7 0.00 0.00 0.00 50 1008.7
20260508164600 65 235 0.0 5.2 0.00 0.00 0.00 50 1009.2
20260508163058 65 169 0.0 10.4 0.00 0.00 0.00 52 1009.3
20260508161556 64 152 0.9 12.2 0.00 0.00 0.00 52 1009.6
20260508160100 64 230 0.9 11.3 0.00 0.00 0.00 52 1009.8
20260508154552 63 139 0.0 3.5 0.00 0.00 0.00 56 1009.8
20260508153048 62 266 1.7 9.6 0.00 0.00 0.00 54 1009.8
20260508151548 61 206 0.9 11.3 0.00 0.00 0.00 53 1010.0
20260508144546 60 147 0.0 8.7 0.00 0.00 0.00 55 1010.4
20260508143046 59 174 0.0 7.0 0.00 0.00 0.00 54 1010.5
20260508141535 58 174 0.9 8.7 0.00 0.00 0.00 53 1010.6
20260508140039 58 195 0.9 7.0 0.00 0.00 0.00 55 1010.7
20260508134531 57 274 0.0 9.6 0.00 0.00 0.00 55 1010.7
20260508133025 56 166 0.9 7.8 0.00 0.00 0.00 57 1010.6
20260508131523 55 191 0.9 6.1 0.00 0.00 0.00 57 1010.7
20260508130025 54 154 0.0 7.8 0.00 0.00 0.00 57 1010.7
20260508124517 53 208 0.0 7.0 0.00 0.00 0.00 58 1010.7
20260508123013 52 295 0.0 3.5 0.00 0.00 0.00 58 1010.6
20260508121517 52 291 0.9 6.1 0.00 0.00 0.00 59 1010.5
20260508120014 51 175 0.0 6.1 0.00 0.00 0.00 60 1010.5
20260508114524 51 144 0.0 1.7 0.00 0.00 0.00 60 1010.5
20260508113008 50 145 0.0 0.0 0.00 0.00 0.00 60 1010.4
20260508111508 50 136 0.0 0.9 0.00 0.00 0.00 59 1010.2
20260508110006 50 295 0.0 0.9 0.00 0.00 0.00 59 1010.1
20260508104506 50 168 0.0 2.6 0.00 0.00 0.00 59 1009.9
20260508103004 51 257 0.0 1.7 0.00 0.00 0.00 59 1010.1
20260508101503 51 257 0.0 0.0 0.00 0.00 0.00 58 1010.1
20260508100002 51 191 0.0 0.0 0.00 0.00 0.00 58 1010.1
20260508094501 51 131 0.0 0.9 0.00 0.00 0.00 59 1010.1
20260508093059 50 143 0.0 1.7 0.00 0.00 0.00 60 1010.2
20260508091557 50 129 0.0 3.5 0.00 0.00 0.00 61 1010.2
20260508090059 49 228 0.0 3.5 0.00 0.00 0.00 62 1010.1
20260508084552 49 147 0.0 0.0 0.00 0.00 0.00 64 1010.2
20260508083052 49 183 0.0 0.0 0.00 0.00 0.00 64 1010.2
20260508081555 48 180 0.0 0.0 0.00 0.00 0.00 64 1010.1
20260508080057 48 181 0.0 0.0 0.00 0.00 0.00 64 1010.1
20260508074550 48 195 0.0 0.0 0.00 0.00 0.00 64 1010.1
20260508073047 48 197 0.0 0.9 0.00 0.00 0.00 65 1010.2
20260508071546 48 148 0.0 1.7 0.00 0.00 0.00 64 1010.1
20260508070045 48 224 0.0 0.0 0.00 0.00 0.00 65 1010.3
20260508064600 48 163 0.0 0.9 0.00 0.00 0.00 66 1010.3
20260508063041 48 157 0.0 0.0 0.00 0.00 0.00 67 1010.4
20260508061545 48 163 0.0 0.0 0.00 0.00 0.00 67 1010.7
20260508060040 48 162 0.0 0.0 0.00 0.00 0.00 66 1010.9
20260508054603 48 160 0.0 0.0 0.00 0.00 0.00 66 1010.9
20260508053038 48 159 0.0 0.0 0.00 0.00 0.00 65 1010.9
20260508051535 48 159 0.0 0.0 0.00 0.00 0.00 65 1010.8
20260508050038 48 158 0.0 0.0 0.00 0.00 0.00 65 1010.8
20260508044534 48 159 0.0 0.0 0.00 0.00 0.00 65 1010.8